Вернуться в каталог

DELTA 1 DEB

АктивенLEO
NORAD 18540·DEBRIS·🇺🇸 United States

Запущен Jul 29, 1976 с Vandenberg Space Force Base

Loading…

Ближайшие Пролёты (ближайшие 24 часа)

TLE

СвежийSource: Space-Track

Эпоха: Sep 14, 2026, 08:02 UTC

1 18540U 76077FC  26257.33484375 -.00002138  00000-0 -11830-1 0  9994
2 18540 103.7542  42.6730 0435951 223.7268 164.4482 12.36253586626308

Отслеживайте DELTA 1 DEB в реальном времени с AllMySat

Download on the App Store